This is the latest recevied weather packets stored in our database for station/object N0HOT. If no packets are shown the sender has not sent any weather packets the latest 10 day(s).
| Time | Temp. | Humidity | Pressure | Rain* | Wind** | Luminosity | Snow |
|---|---|---|---|---|---|---|---|
| 1777671138 | 13.33° C | 23% | 1016.7 hPa | 0 mm | - | 135 W/m² | - |
| 1777670834 | 13.33° C | 24% | 1017 hPa | 0 mm | - | 217 W/m² | - |
| 1777670531 | 13.33° C | 25% | 1017 hPa | 0 mm | - | 130 W/m² | - |
| 1777670227 | 13.33° C | 23% | 1017 hPa | 0 mm | - | 269 W/m² | - |
| 1777669925 | 13.33° C | 23% | 1017 hPa | 0 mm | - | 575 W/m² | - |
| 1777669622 | 13.33° C | 23% | 1017 hPa | 0 mm | - | 180 W/m² | - |
| 1777669318 | 12.78° C | 28% | 1017 hPa | 0 mm | - | 198 W/m² | - |
| 1777669014 | 12.78° C | 25% | 1017 hPa | 0 mm | - | 470 W/m² | - |
| 1777668712 | 12.78° C | 26% | 1016.7 hPa | 0 mm | - | 157 W/m² | - |
| 1777668409 | 12.78° C | 26% | 1017 hPa | 0 mm | - | 315 W/m² | - |
| 1777668104 | 12.78° C | 26% | 1017 hPa | 0 mm | - | 402 W/m² | - |
| 1777667801 | 12.78° C | 27% | 1017 hPa | 0 mm | - | 695 W/m² | - |
| 1777667499 | 12.78° C | 28% | 1017 hPa | 0 mm | - | 156 W/m² | - |
| 1777667196 | 13.33° C | 27% | 1017.3 hPa | 0 mm | - | 163 W/m² | - |
| 1777666893 | 13.33° C | 25% | 1017.3 hPa | 0 mm | - | 455 W/m² | - |
| 1777666589 | 13.89° C | 25% | 1016.7 hPa | 0 mm | - | 753 W/m² | - |
| 1777666286 | 13.33° C | 25% | 1017.3 hPa | 0 mm | - | 765 W/m² | - |
| 1777665983 | 13.33° C | 23% | 1017 hPa | 0 mm | - | 701 W/m² | - |
| 1777665681 | 13.33° C | 23% | 1017.3 hPa | 0 mm | - | 721 W/m² | - |
| 1777665378 | 13.33° C | 27% | 1017.3 hPa | 0 mm | - | 773 W/m² | - |
| 1777665074 | 12.78° C | 25% | 1017 hPa | 0 mm | - | 753 W/m² | - |
| 1777664769 | 12.78° C | 25% | 1017 hPa | 0 mm | - | 722 W/m² | - |
| 1777664465 | 12.78° C | 30% | 1017.3 hPa | 0 mm | - | 741 W/m² | - |
| 1777664163 | 12.78° C | 27% | 1017.3 hPa | 0 mm | - | 151 W/m² | - |
| 1777663861 | 12.78° C | 24% | 1017.3 hPa | 0 mm | - | 233 W/m² | - |
* Rain latest hour (hover to see other rain measurements)
** Current wind speed in m/s (hover to see current wind gust speed)